Flag for Canada Weather past 2 weeks in Port Coquitlam, British Columbia, Canada

Now
55 °F

Cool.


Feels Like: 55 °F
Forecast: 53 / 56 °F
Wind: 5 mph from East

Location: P. Meadows Coastal Station

Current Time: Oct 20, 2014 at 11:07:59 PM

Latest Report: Oct 20, 2014 at 10:00 PM


Visibility: N/A

Pressure: 29.74 "Hg

Humidity: 91%

Dew point: 53 °F

Location of Port CoquitlamLocation

Historic Weather in Port Coquitlam — Graph

°F

Port Coquitlam temperature yesterday

Maximum temperature yesterday: 71 °F (at 1:00 PM)
Minimum temperature yesterday: 54 °F (at 8:00 AM)
Average temperature yesterday: 62 °F

Past Weeks' High & Low Weather Summary

 TemperatureHumidityPressure
High72 °F (Oct 6, 3:00 PM)100% (Oct 8, 3:00 AM)30.24 "Hg (Oct 8, 3:00 AM)
Low47 °F (Oct 17, 12:00 AM)54% (Oct 19, 1:00 PM)29.52 "Hg (Oct 15, 2:00 AM)
Average57 °F90%29.89 "Hg
* Reported Oct 5 10:00 PM — Oct 20 10:00 PM, Port Coquitlam, Weather by CustomWeather, © 2014

Note: Actual official high and low records may vary slightly from our data, if they occured in-between our weather recording intervals... More about our weather records

Advertising

Port Coquitlam weather history for previous 24 hours

 ConditionsComfort  
Time TempWeatherWind HumidityBarometerVisibility
10:00 PM
Oct 20
55 °FCool.5 mph91%29.74 "HgN/A
9:00 PM56 °FCool.1 mph94%29.73 "HgN/A
8:00 PM56 °FCool.1 mph96%29.72 "HgN/A
7:00 PM57 °FCool.1 mph96%29.72 "HgN/A
6:00 PM56 °FCool.1 mph99%29.72 "HgN/A
5:00 PM59 °FCool.1 mph89%29.73 "HgN/A
4:00 PM60 °FCool.2 mph84%29.73 "HgN/A
3:00 PM59 °FCool.5 mph87%29.73 "HgN/A
2:00 PM60 °FCool.6 mph89%29.72 "HgN/A
1:00 PM60 °FCool.1 mph91%29.72 "HgN/A
12:00 PM58 °FCool.2 mph95%29.73 "HgN/A
11:00 AM57 °FCool.2 mph97%29.72 "HgN/A
10:00 AM56 °FCool.2 mph97%29.71 "HgN/A
9:00 AM56 °FCool.2 mph97%29.69 "HgN/A
8:00 AM56 °FCool.5 mph96%29.67 "HgN/A
7:00 AM58 °FCool.2 mph95%29.67 "HgN/A
5:00 AM59 °FCool.No wind96%29.66 "HgN/A
4:00 AM59 °FCool.2 mph95%29.66 "HgN/A
2:00 AM59 °FCool.5 mph95%29.67 "HgN/A
1:00 AM60 °FCool.2 mph93%29.67 "HgN/A
12:00 AM60 °FCool.2 mph96%29.66 "HgN/A
11:00 PM
Oct 19
60 °FCool.2 mph94%29.65 "HgN/A
Weather by CustomWeather, © 2014

See weather overviewHow to use our weather pages